TimeEDT,TemperatureF,Dew PointF,Humidity,Sea Level PressureIn,VisibilityMPH,Wind Direction,Wind SpeedMPH,Gust SpeedMPH,PrecipitationIn,Events,Conditions,WindDirDegrees,DateUTC
12:53 AM,80.1,73.0,79,29.96,10.0,West,4.6,-,N/A,,Clear,260,2013-07-25 04:53:00
1:53 AM,80.1,73.9,81,29.96,10.0,West,4.6,-,N/A,,Mostly Cloudy,260,2013-07-25 05:53:00
2:12 AM,80.6,73.4,79,29.94,10.0,West,4.6,-,N/A,,Scattered Clouds,260,2013-07-25 06:12:00
2:53 AM,80.1,73.0,79,29.93,10.0,WSW,4.6,-,N/A,,Clear,240,2013-07-25 06:53:00
3:53 AM,80.1,73.0,79,29.93,10.0,West,8.1,-,N/A,,Clear,260,2013-07-25 07:53:00
4:53 AM,80.1,72.0,76,29.93,10.0,WSW,6.9,-,N/A,,Clear,250,2013-07-25 08:53:00
5:53 AM,80.1,72.0,76,29.94,10.0,West,8.1,-,N/A,,Clear,260,2013-07-25 09:53:00
6:53 AM,79.0,73.9,84,29.95,10.0,WSW,5.8,-,N/A,,Partly Cloudy,250,2013-07-25 10:53:00
7:53 AM,82.0,73.9,76,29.97,10.0,West,8.1,-,N/A,,Clear,280,2013-07-25 11:53:00
8:53 AM,84.0,73.9,72,29.98,10.0,West,10.4,-,N/A,,Clear,270,2013-07-25 12:53:00
9:53 AM,84.9,73.0,67,30.00,10.0,West,11.5,-,N/A,,Scattered Clouds,260,2013-07-25 13:53:00
10:18 AM,86.0,73.4,66,30.00,10.0,West,10.4,-,N/A,,Mostly Cloudy,260,2013-07-25 14:18:00
10:27 AM,86.0,73.4,66,30.01,10.0,West,9.2,-,N/A,,Mostly Cloudy,280,2013-07-25 14:27:00
10:38 AM,84.2,73.4,70,30.01,10.0,West,11.5,-,N/A,,Mostly Cloudy,270,2013-07-25 14:38:00
10:45 AM,87.8,73.4,62,30.01,10.0,West,13.8,-,N/A,,Mostly Cloudy,270,2013-07-25 14:45:00
10:53 AM,86.0,73.9,67,30.03,10.0,West,13.8,-,N/A,,Mostly Cloudy,280,2013-07-25 14:53:00
11:02 AM,87.8,73.4,62,30.02,10.0,West,13.8,20.7,N/A,,Scattered Clouds,270,2013-07-25 15:02:00
11:53 AM,89.1,75.0,63,30.03,10.0,West,12.7,-,N/A,,Partly Cloudy,280,2013-07-25 15:53:00
12:53 PM,89.1,75.0,63,30.03,10.0,West,12.7,-,N/A,,Mostly Cloudy,280,2013-07-25 16:53:00
1:53 PM,88.0,75.0,65,30.02,10.0,WNW,11.5,19.6,N/A,,Partly Cloudy,290,2013-07-25 17:53:00
2:53 PM,88.0,73.9,63,30.02,10.0,West,11.5,-,N/A,,Partly Cloudy,270,2013-07-25 18:53:00
3:53 PM,87.1,73.9,65,30.01,10.0,WNW,12.7,-,N/A,,Clear,300,2013-07-25 19:53:00
4:53 PM,87.1,73.9,65,30.01,10.0,West,13.8,-,N/A,,Partly Cloudy,270,2013-07-25 20:53:00
5:53 PM,86.0,73.9,67,30.01,10.0,WNW,8.1,-,N/A,,Scattered Clouds,290,2013-07-25 21:53:00
6:53 PM,84.9,72.0,65,30.01,10.0,West,10.4,-,N/A,,Clear,280,2013-07-25 22:53:00
7:53 PM,84.0,72.0,67,30.01,10.0,West,11.5,-,N/A,,Clear,280,2013-07-25 23:53:00
8:53 PM,82.0,73.0,74,30.01,10.0,WSW,6.9,-,N/A,,Clear,240,2013-07-26 00:53:00
9:53 PM,82.0,73.0,74,30.01,10.0,WSW,9.2,-,N/A,,Clear,250,2013-07-26 01:53:00
10:53 PM,82.0,73.9,76,30.03,10.0,WSW,8.1,-,N/A,,Clear,250,2013-07-26 02:53:00
11:53 PM,82.0,73.0,74,30.03,10.0,WSW,9.2,-,N/A,,Partly Cloudy,240,2013-07-26 03:53:00